Harlingen, TX

3:49 AM CST on February 25, 2017 (GMT -0600)
Valley International

Weather History for KHRL - March, 2013

Change the Weather History Date:

Saturday, March 16, 2013

  Actual Average Record
Temperature  
Mean Temperature 70 °F 69 °F  
Max Temperature 84 °F 80 °F 95 °F (1945)
Min Temperature 56 °F 58 °F 33 °F (1879)
Degree Days  
Heating Degree Days 0 1  
Month to date heating degree days 36 34  
Since 1 July heating degree days 384 602  
Cooling Degree Days 5 5  
Month to date cooling degree days 45 72  
Year to date cooling degree days 239 197  
Growing Degree Days 20 (Base 50)    
Moisture  
Dew Point 60 °F    
Average Humidity 68    
Maximum Humidity 93    
Minimum Humidity 43    
Precipitation  
Precipitation 0.00 in 0.03 in 1.87 in (1983)
Month to date precipitation 0.01 0.58  
Year to date precipitation 2.75 3.05  
Sea Level Pressure  
Sea Level Pressure 29.89 in    
Wind  
Wind Speed 18 mph (SSE)    
Max Wind Speed 32 mph    
Max Gust Speed 39 mph    
Visibility 10 miles    
Events      
T = Trace of Precipitation, MM = Missing Value Source: NWS Daily Summary

Daily Weather History Graph

Daily Weather History Graph

Search for Another Location

Airport or City:

Trip Planner

Search our weather history database for the weather conditions in past years. The results will help you decide how hot, cold, wet, or windy it might be!

Date:

Astronomy

Mar. 16, 2013 Rise Set
Actual Time 7:38 AM CDT 7:40 PM CDT
Civil Twilight 7:15 AM CDT 8:03 PM CDT
Nautical Twilight 6:48 AM CDT 8:29 PM CDT
Astronomical Twilight 6:21 AM CDT 8:56 PM CDT
Moon 10:37 AM CDT (3/16) No Moon Set
Length of Visible Light 12h 47m
Length of Day
12h 01m
Waxing Crescent, 23% of the Moon is Illuminated
Mar 16
Waxing Crescent
Mar 19
First Quarter
Mar 27
Full
Apr 2
Last Quarter
Apr 10
New

Hourly Weather History & Observations

Time (CDT) Temp. Heat Index Dew Point Humidity Pressure Visibility Wind Dir Wind Speed Gust Speed Precip Events Conditions
12:52 AM 57.9 °F - 55.0 °F 90% 30.05 in 10.0 mi SE 6.9 mph - N/A   Clear
1:52 AM 57.0 °F - 53.1 °F 87% 30.03 in 10.0 mi SE 6.9 mph - N/A   Clear
2:52 AM 59.0 °F - 55.0 °F 87% 30.01 in 10.0 mi SE 6.9 mph - N/A   Clear
3:52 AM 59.0 °F - 55.9 °F 90% 29.98 in 10.0 mi SE 6.9 mph - N/A   Partly Cloudy
4:52 AM 60.1 °F - 57.0 °F 90% 29.96 in 10.0 mi SE 5.8 mph - N/A   Clear
5:52 AM 60.1 °F - 57.0 °F 90% 29.95 in 10.0 mi SE 8.1 mph - N/A   Partly Cloudy
6:52 AM 60.1 °F - 57.9 °F 93% 29.94 in 10.0 mi SE 8.1 mph - N/A   Clear
7:52 AM 59.0 °F - 57.0 °F 93% 29.94 in 10.0 mi SE 5.8 mph - N/A   Clear
8:52 AM 66.0 °F - 62.1 °F 87% 29.93 in 10.0 mi SSE 12.7 mph - N/A   Clear
9:50 AM 73.4 °F - 62.6 °F 69% 29.94 in 10.0 mi South 21.9 mph 29.9 mph N/A   Mostly Cloudy
9:52 AM 73.0 °F - 63.0 °F 71% 29.94 in 10.0 mi South 20.7 mph 26.5 mph N/A   Mostly Cloudy
10:52 AM 77.0 °F - 62.1 °F 60% 29.94 in 10.0 mi SSE 24.2 mph 29.9 mph N/A   Mostly Cloudy
11:52 AM 75.9 °F - 61.0 °F 60% 29.93 in 10.0 mi South 26.5 mph 32.2 mph N/A   Scattered Clouds
12:52 PM 80.1 °F 80.7 °F 59.0 °F 48% 29.90 in 10.0 mi South 27.6 mph 33.4 mph N/A   Mostly Cloudy
1:52 PM 81.0 °F 81.3 °F 59.0 °F 47% 29.87 in 10.0 mi South 23.0 mph 33.4 mph N/A   Mostly Cloudy
2:52 PM 84.0 °F 83.8 °F 59.0 °F 43% 29.83 in 10.0 mi SSE 26.5 mph 34.5 mph N/A   Scattered Clouds
3:52 PM 82.0 °F 82.7 °F 61.0 °F 49% 29.82 in 10.0 mi SSE 25.3 mph 33.4 mph N/A   Scattered Clouds
4:52 PM 77.0 °F - 62.1 °F 60% 29.80 in 10.0 mi SSE 25.3 mph 32.2 mph N/A   Mostly Cloudy
5:52 PM 75.9 °F - 62.1 °F 62% 29.79 in 10.0 mi SSE 23.0 mph 29.9 mph N/A   Scattered Clouds
6:52 PM 73.9 °F - 62.1 °F 66% 29.81 in 10.0 mi SSE 21.9 mph 27.6 mph N/A   Mostly Cloudy
7:05 PM 73.4 °F - 62.6 °F 69% 29.81 in 10.0 mi SSE 20.7 mph 29.9 mph N/A   Mostly Cloudy
7:23 PM 73.4 °F - 62.6 °F 69% 29.81 in 10.0 mi SSE 21.9 mph 27.6 mph N/A   Scattered Clouds
7:52 PM 72.0 °F - 62.1 °F 71% 29.82 in 10.0 mi SSE 21.9 mph - N/A   Scattered Clouds
7:59 PM 71.6 °F - 62.6 °F 73% 29.82 in 10.0 mi SSE 17.3 mph 27.6 mph N/A   Mostly Cloudy
8:52 PM 71.1 °F - 62.1 °F 73% 29.83 in 10.0 mi SSE 20.7 mph - N/A   Mostly Cloudy
8:59 PM 71.6 °F - 62.6 °F 73% 29.83 in 10.0 mi SSE 19.6 mph 28.8 mph N/A   Scattered Clouds
9:35 PM 71.6 °F - 62.6 °F 73% 29.84 in 10.0 mi SSE 18.4 mph - N/A   Mostly Cloudy
9:52 PM 71.1 °F - 63.0 °F 75% 29.85 in 10.0 mi SSE 18.4 mph 21.9 mph N/A   Overcast
10:15 PM 69.8 °F - 62.6 °F 78% 29.84 in 10.0 mi SSE 21.9 mph 31.1 mph N/A   Scattered Clouds
10:52 PM 70.0 °F - 63.0 °F 78% 29.84 in 10.0 mi SSE 20.7 mph 27.6 mph N/A   Partly Cloudy
11:52 PM 70.0 °F - 63.0 °F 78% 29.81 in 10.0 mi SSE 20.7 mph 29.9 mph N/A   Clear